Location: Sweet Grass
(48.9965°N, 111.9649°W)
Time: 11:42:41
(UTC+00:00)

FO-99 - Visible Passes

Search period start: 02 April 2023 00:00
Search period end: 12 April 2023 00:00
Orbit: 421 x 442 km, 97.1° (Epoch: 01 April)

Date Brightness Start Highest point End Pass type
(mag) Time Alt. Az. Time Alt. Az. Time Alt. Az.
02 Apr ? 03:13:42 10° SW 03:15:58 17° W 03:18:16 10° NW visible
03 Apr ? 02:31:58 10° S 02:35:13 51° W 02:38:30 10° NNW visible
04 Apr ? 03:25:43 10° WSW 03:27:16 13° W 03:28:50 10° WNW visible
05 Apr ? 02:43:09 10° SSW 02:46:15 36° W 02:49:23 10° NNW visible
07 Apr ? 02:54:00 10° SSW 02:56:52 27° W 02:59:46 10° NW visible
09 Apr ? 03:04:30 10° SW 03:07:04 21° W 03:09:39 10° NW visible
11 Apr ? 03:14:42 10° SW 03:16:51 16° W 03:19:00 10° NW visible
